{"data":{"norad_id":48305,"epoch":"2026-05-25T03:34:58.401120Z","epoch_age_seconds":62068,"freshness":"FRESH","line1":"1 48305U 21036AF  26145.14928705  .00000582  00000+0  30507-4 0  9999","line2":"2 48305  53.1616 103.8728 0001272  89.3397 270.7750 15.31701156279763","mean_motion":15.31701156,"eccentricity":0.0001272,"inclination_deg":53.1616,"raan_deg":103.8728,"arg_perigee_deg":89.3397,"mean_anomaly_deg":270.775,"bstar":3.0507e-5,"rev_number":27976,"period_min":94.013117007793,"perigee_km":469.8653725365,"apogee_km":471.60772596743,"semimajor_km":6848.873549252,"source":"CELESTRAK","updated_at":"2026-05-25T13:38:16.677207Z"}}